Terminal Aerodrome Forecast
Issued by NWS

Home | Current Version | Previous Version | Text Only | Print | Product List | Glossary On
Versions: 1 2 3 4 5 6 7 8 9 10 11 12 13 14 15 16 17
000
FTUS42 KKEY 281120
TAFMTH
TAF
KMTH 281120Z 2812/2912 06007KT P6SM FEW030=

USA.gov is the U.S. government's official web portal to all federal, state and local government web resources and services.